Location: Casteau
(50.5142°N, 4.0161°E)
Time: 21:20:26
(UTC+00:00)

Transit 2A - Pass Details

Date: 02 August 2021
Orbit: 594 x 964 km, 66.7° (Epoch: 26 September)

Event Time Altitude Azimuth Distance (km) Brightness Sun altitude
Rises 04:39:56 0° 167° (SSE) 2,834 8.8 3.0°
Reaches altitude 10° 04:42:50 10° 145° (SE) 1,963 8.3 3.4°
Maximum altitude 04:45:33 16° 107° (ESE) 1,632 8.6 3.8°
Drops below altitude 10° 04:48:22 10° 69° (ENE) 2,057 11.2 4.2°
Sets 04:51:30 0° 49° (NE) 3,040 10.8 4.7°
